User: anonymous   Login
Location: Prairie State College
(41.5244°N, 87.6382°W)
Time: 19:11:22
(UTC-06:00)
Language:

ARGOS Delta rocket - Orbit

View from above orbital plane
View from above orbital plane
View from above satellite
View from above satellite

Ground track
Ground track

The orbit data is extracted from the following two-line orbital elements,

1 25637U 99008D   17023.82416250  .00000076  00000-0  26329-4 0  9999
2 25637  96.4857 317.5933 0143390  20.8489   5.6615 14.46491689944749
Epoch (UTC): 23 January 2017 19:46:47
Eccentricity: 0.0143390
inclination: 96.4857°
perigee height: 635 km
apogee height: 839 km
right ascension of ascending node: 317.5933°
argument of perigee: 20.8489°
revolutions per day: 14.46491689
mean anomaly at epoch: 5.6615°
orbit number at epoch: 94474

The dashed part of the orbit path shows where the satellite is in the earth's shadow,  

DLR